• In Slovakia
  • List of Countries
  • For 7 days
  • Water Temperature
  • Satellite Maps
  • Weather Map
  • Weather Widgets
  • user-avatar
    Login

    Hourly Weather Naftalan

    Today, 18 October, Thursday

    Time Temperature Precipitation Wind Pressure Humidity
    00:00 +19°C° 0 mm 5 mps 769 mmHg 80%
    01:00 +19°C° 0 mm 5 mps 769 mmHg 80%
    02:00 +17°C° 0 mm 5 mps 769 mmHg 80%
    03:00 +18°C° 0 mm 4 mps 769 mmHg 82%
    04:00 +18°C° 0 mm 4 mps 769 mmHg 82%
    05:00 +18°C° 0 mm 4 mps 769 mmHg 82%
    06:00 +18°C° 0 mm 4 mps 769 mmHg 82%
    07:00 +19°C° 0 mm 4 mps 769 mmHg 76%
    08:00 +21°C° 0 mm 4 mps 769 mmHg 69%
    09:00 +22°C° 0 mm 4 mps 769 mmHg 63%
    10:00 +23°C° 0.1 mm 4 mps 769 mmHg 58%
    11:00 +25°C° 0.1 mm 4 mps 768 mmHg 54%
    12:00 +26°C° 0.1 mm 4 mps 768 mmHg 49%
    13:00 +26°C° 0 mm 4 mps 768 mmHg 50%
    14:00 +26°C° 0 mm 5 mps 768 mmHg 51%
    15:00 +26°C° 0 mm 5 mps 767 mmHg 52%
    16:00 +25°C° 0 mm 5 mps 768 mmHg 59%
    17:00 +22°C° 0 mm 6 mps 768 mmHg 66%
    18:00 +21°C° 0 mm 6 mps 768 mmHg 72%
    19:00 +21°C° 0 mm 6 mps 768 mmHg 73%
    20:00 +20°C° 0 mm 5 mps 768 mmHg 74%
    21:00 +20°C° 0 mm 5 mps 769 mmHg 75%
    22:00 +20°C° 0 mm 5 mps 769 mmHg 76%
    23:00 +19°C° 0 mm 5 mps 769 mmHg 77%

    Tomorrow, 19 October, Friday

    Time Temperature Precipitation Wind Pressure Humidity
    00:00 +19°C° 0 mm 5 mps 768 mmHg 78%
    01:00 +19°C° 0 mm 4 mps 768 mmHg 79%
    02:00 +19°C° 0 mm 4 mps 768 mmHg 80%
    03:00 +18°C° 0 mm 4 mps 768 mmHg 81%
    04:00 +18°C° 0 mm 4 mps 768 mmHg 81%
    05:00 +18°C° 0 mm 4 mps 768 mmHg 82%
    06:00 +18°C° 0 mm 4 mps 768 mmHg 82%
    07:00 +20°C° 0 mm 4 mps 769 mmHg 75%
    08:00 +21°C° 0 mm 4 mps 769 mmHg 67%
    09:00 +23°C° 0 mm 5 mps 769 mmHg 60%
    10:00 +23°C° 0 mm 5 mps 769 mmHg 57%
    11:00 +25°C° 0 mm 5 mps 768 mmHg 54%
    12:00 +26°C° 0 mm 5 mps 768 mmHg 51%
    13:00 +25°C° 0 mm 5 mps 768 mmHg 53%
    14:00 +24°C° 0 mm 6 mps 767 mmHg 55%
    15:00 +24°C° 0 mm 6 mps 767 mmHg 56%
    16:00 +23°C° 0 mm 6 mps 767 mmHg 61%
    17:00 +22°C° 0 mm 6 mps 767 mmHg 66%
    18:00 +21°C° 0 mm 6 mps 767 mmHg 71%
    19:00 +20°C° 0 mm 6 mps 767 mmHg 73%
    20:00 +20°C° 0 mm 5 mps 768 mmHg 74%
    21:00 +20°C° 0 mm 5 mps 768 mmHg 75%
    22:00 +19°C° 0 mm 5 mps 767 mmHg 76%
    23:00 +19°C° 0 mm 5 mps 767 mmHg 77%

    Day after tomorrow, 20 October, Saturday

    Time Temperature Precipitation Wind Pressure Humidity
    00:00 +19°C° 0 mm 4 mps 767 mmHg 77%
    01:00 +19°C° 0 mm 4 mps 767 mmHg 78%
    02:00 +19°C° 0 mm 4 mps 766 mmHg 79%
    03:00 +18°C° 0 mm 4 mps 766 mmHg 81%
    04:00 +18°C° 0 mm 4 mps 766 mmHg 82%
    05:00 +18°C° 0 mm 4 mps 766 mmHg 82%
    06:00 +18°C° 0 mm 4 mps 766 mmHg 83%
    07:00 +19°C° 0 mm 4 mps 766 mmHg 77%
    08:00 +21°C° 0 mm 4 mps 766 mmHg 71%
    09:00 +22°C° 0 mm 4 mps 766 mmHg 65%
    10:00 +23°C° 0 mm 4 mps 766 mmHg 61%
    11:00 +25°C° 0 mm 4 mps 765 mmHg 58%
    12:00 +26°C° 0 mm 3 mps 765 mmHg 54%
    13:00 +26°C° 0 mm 4 mps 765 mmHg 54%
    14:00 +26°C° 0 mm 4 mps 764 mmHg 54%
    15:00 +26°C° 0 mm 4 mps 764 mmHg 54%
    16:00 +25°C° 0 mm 4 mps 764 mmHg 59%
    17:00 +22°C° 0 mm 4 mps 764 mmHg 64%
    18:00 +21°C° 0 mm 4 mps 764 mmHg 69%
    19:00 +21°C° 0 mm 4 mps 764 mmHg 70%
    20:00 +20°C° 0 mm 4 mps 764 mmHg 71%
    21:00 +20°C° 0 mm 3 mps 764 mmHg 72%
    22:00 +20°C° 0 mm 3 mps 764 mmHg 74%
    23:00 +20°C° 0 mm 2 mps 763 mmHg 76%

    21 October, Sunday

    Time Temperature Precipitation Wind Pressure Humidity
    00:00 +19°C° 0 mm 2 mps 763 mmHg 77%
    01:00 +20°C° 0 mm 1 mps 763 mmHg 79%
    02:00 +20°C° 0 mm 1 mps 763 mmHg 81%
    03:00 +19°C° 0 mm 1 mps 763 mmHg 82%
    04:00 +19°C° 0 mm 1 mps 763 mmHg 83%
    05:00 +19°C° 0 mm 1 mps 763 mmHg 84%
    06:00 +19°C° 0 mm 1 mps 763 mmHg 85%
    07:00 +20°C° 0 mm 1 mps 763 mmHg 78%
    08:00 +22°C° 0 mm 1 mps 763 mmHg 72%
    09:00 +24°C° 0 mm 1 mps 763 mmHg 66%
    10:00 +25°C° 0 mm 1 mps 763 mmHg 60%
    11:00 +26°C° 0 mm 1 mps 762 mmHg 55%
    12:00 +27°C° 0 mm 2 mps 762 mmHg 50%
    13:00 +27°C° 0 mm 2 mps 761 mmHg 50%
    14:00 +27°C° 0 mm 3 mps 761 mmHg 50%
    15:00 +27°C° 0 mm 3 mps 760 mmHg 50%
    16:00 +26°C° 0 mm 4 mps 760 mmHg 53%
    17:00 +25°C° 0 mm 4 mps 761 mmHg 56%
    18:00 +23°C° 0 mm 4 mps 761 mmHg 60%
    19:00 +22°C° 0 mm 4 mps 761 mmHg 61%
    20:00 +22°C° 0 mm 4 mps 761 mmHg 62%
    21:00 +22°C° 0 mm 4 mps 761 mmHg 64%
    22:00 +21°C° 0 mm 3 mps 760 mmHg 64%
    23:00 +21°C° 0 mm 3 mps 760 mmHg 65%

    22 October, Monday

    Time Temperature Precipitation Wind Pressure Humidity
    00:00 +21°C° 0 mm 2 mps 760 mmHg 65%
    01:00 +21°C° 0 mm 2 mps 760 mmHg 66%
    02:00 +20°C° 0 mm 2 mps 760 mmHg 67%
    03:00 +21°C° 0 mm 1 mps 760 mmHg 69%
    04:00 +20°C° 0 mm 2 mps 760 mmHg 69%
    05:00 +20°C° 0 mm 2 mps 760 mmHg 68%
    06:00 +19°C° 0 mm 2 mps 760 mmHg 68%
    07:00 +21°C° 0 mm 3 mps 761 mmHg 62%
    08:00 +24°C° 0 mm 3 mps 761 mmHg 56%
    09:00 +26°C° 0 mm 4 mps 761 mmHg 50%
    10:00 +27°C° 0 mm 4 mps 761 mmHg 46%
    11:00 +28°C° 0 mm 3 mps 761 mmHg 42%
    12:00 +30°C° 0 mm 3 mps 760 mmHg 37%
    13:00 +30°C° 0 mm 3 mps 760 mmHg 36%
    14:00 +30°C° 0 mm 3 mps 760 mmHg 34%
    15:00 +30°C° 0 mm 2 mps 760 mmHg 32%
    16:00 +29°C° 0 mm 2 mps 760 mmHg 37%
    17:00 +27°C° 0 mm 2 mps 760 mmHg 42%
    18:00 +25°C° 0 mm 2 mps 760 mmHg 46%
    19:00 +25°C° 0 mm 2 mps 761 mmHg 48%
    20:00 +25°C° 0 mm 2 mps 761 mmHg 49%
    21:00 +24°C° 0 mm 2 mps 761 mmHg 51%
    22:00 +24°C° 0 mm 2 mps 761 mmHg 51%
    23:00 +23°C° 0 mm 1 mps 761 mmHg 51%

    23 October, Tuesday

    Time Temperature Precipitation Wind Pressure Humidity
    00:00 +23°C° 0 mm 1 mps 761 mmHg 51%
    01:00 +23°C° 0 mm 1 mps 762 mmHg 51%
    02:00 +21°C° 0 mm 2 mps 762 mmHg 51%
    03:00 +21°C° 0 mm 2 mps 762 mmHg 52%
    04:00 +20°C° 0 mm 2 mps 762 mmHg 53%
    05:00 +20°C° 0 mm 2 mps 763 mmHg 55%
    06:00 +19°C° 0 mm 2 mps 763 mmHg 56%
    07:00 +22°C° 0 mm 1 mps 763 mmHg 50%
    08:00 +24°C° 0 mm 1 mps 763 mmHg 43%
    09:00 +26°C° 0 mm 1 mps 763 mmHg 36%
    10:00 +27°C° 0 mm 1 mps 763 mmHg 33%
    11:00 +29°C° 0 mm 2 mps 763 mmHg 29%
    12:00 +30°C° 0 mm 2 mps 762 mmHg 26%
    13:00 +30°C° 0 mm 3 mps 762 mmHg 28%
    14:00 +30°C° 0 mm 3 mps 762 mmHg 29%
    15:00 +30°C° 0 mm 4 mps 761 mmHg 31%
    16:00 +28°C° 0 mm 4 mps 761 mmHg 41%
    17:00 +26°C° 0 mm 4 mps 762 mmHg 51%
    18:00 +23°C° 0 mm 4 mps 762 mmHg 61%
    19:00 +23°C° 0 mm 4 mps 762 mmHg 63%
    20:00 +23°C° 0 mm 4 mps 761 mmHg 65%
    21:00 +22°C° 0 mm 4 mps 761 mmHg 68%
    22:00 +22°C° 0 mm 3 mps 761 mmHg 68%
    23:00 +22°C° 0 mm 3 mps 761 mmHg 69%
    Show more